Wind_Speed
48 45 45 46 43 44 44 40 40 27 11 12 13 13 13 17 18 18 20 24 27 31 36 39 42 43 44 43 44 46 49 53 58 65 69 77 80 73 57 49 46 40 40
50 49 45 41 38 40 45 34 32 22 19 14 16 15 15 19 19 20 22 25 29 34 38 40 41 41 41 42 44 48 51 56 62 69 76 76 67 54 48 43 41 40 40
54 50 42 36 34 34 37 34 35 17 30 17 22 17 18 21 21 22 24 28 32 36 38 39 39 38 40 41 45 49 54 60 67 74 74 62 49 45 42 37 37 38 39
55 47 42 37 37 42 37 31 27 29 15 11 20 17 21 21 23 24 26 29 34 37 38 38 37 37 39 42 46 50 56 63 69 75 64 46 38 37 35 33 32 35 35
55 47 42 40 37 42 40 32 34 13 8 15 16 19 20 21 23 26 29 32 35 35 35 35 36 37 39 44 48 52 59 65 71 67 51 39 32 29 29 27 30 29 32
53 48 44 45 43 55 40 35 12 6 15 14 18 20 20 23 25 28 31 33 34 33 35 35 38 40 44 49 52 56 61 68 70 59 44 35 33 24 30 28 31 29 26
52 50 45 41 54 41 31 28 14 13 16 17 20 20 22 25 27 28 31 31 32 32 33 36 39 43 47 51 55 60 65 69 62 49 40 31 26 24 24 24 28 33 32
49 47 56 61 48 33 20 18 12 12 12 21 21 21 23 24 26 28 30 30 29 30 33 36 40 44 49 53 58 64 67 64 53 41 35 33 25 25 23 25 31 34 33
49 54 63 55 31 25 19 13 9 15 21 21 20 20 22 23 26 28 28 28 28 31 35 39 42 47 52 58 63 66 62 56 43 35 32 32 24 26 23 23 30 29 27
67 65 46 37 31 24 15 12 18 22 20 18 18 19 21 25 25 26 23 26 31 34 38 43 48 52 58 63 66 60 52 43 32 27 29 29 21 24 23 27 34 25 20
52 40 37 33 25 20 21 25 22 19 15 15 16 19 20 22 20 21 25 29 32 37 42 47 54 60 64 64 60 51 41 32 23 20 21 21 19 23 27 28 31 23 20
42 37 29 25 21 19 20 19 16 12 12 13 14 16 16 15 18 23 27 31 36 42 48 55 61 63 63 57 50 44 35 26 17 17 17 18 17 21 26 26 26 21 23
36 30 25 22 22 23 19 14 11 8 7 10 11 11 12 15 21 25 31 37 43 49 55 60 62 61 52 46 40 37 30 24 15 17 15 18 15 17 24 28 20 19 25
32 26 22 23 22 19 13 7 2 3 8 7 7 9 14 18 24 31 35 41 49 54 57 58 52 45 40 38 37 32 26 19 15 17 11 15 13 16 20 22 16 18 23
21 20 21 19 14 8 5 2 2 4 4 5 7 11 16 23 29 34 42 49 52 55 53 52 44 37 35 33 32 31 25 17 12 14 12 16 12 14 17 17 12 14 20
20 19 16 12 9 8 4 1 2 2 1 4 10 16 23 29 34 41 46 49 53 53 50 46 38 32 30 30 28 28 22 15 10 12 10 13 10 12 14 12 12 14 17
18 15 13 11 9 5 3 3 3 2 3 10 16 23 30 35 39 43 47 49 50 48 46 37 29 26 26 26 27 28 18 13 9 10 9 10 8 10 12 13 5 13 17
15 12 11 8 7 5 5 5 3 3 9 16 23 29 32 36 40 44 48 48 47 45 36 30 27 27 26 25 28 28 15 10 7 7 8 7 6 7 11 12 12 10 13
13 12 10 7 7 7 6 3 3 9 16 22 27 29 33 38 42 45 48 47 44 37 30 29 27 27 25 25 27 26 15 10 8 7 7 5 5 6 8 10 13 13 11
11 11 7 8 9 7 4 4 9 14 19 24 26 30 36 41 43 47 48 43 40 33 29 28 26 25 25 25 26 28 17 12 8 7 5 5 3 7 6 7 9 11 11
11 7 9 11 8 6 2 5 11 16 22 25 27 34 39 41 46 49 46 41 36 30 28 26 24 23 24 24 23 25 21 11 11 9 7 4 2 4 7 3 4 6 9
8 9 10 8 7 3 2 7 13 19 22 25 29 36 40 44 47 48 44 38 34 30 26 24 22 22 23 23 21 21 23 14 8 9 8 6 4 3 4 6 2 2 4
9 10 10 9 7 3 5 11 16 22 21 27 31 37 42 44 46 47 41 35 33 29 25 22 21 21 21 21 20 19 18 20 12 8 10 8 7 4 3 3 5 4 2
10 10 9 7 3 5 10 15 20 22 23 26 31 38 42 43 43 41 37 34 32 29 24 22 20 20 20 19 19 18 16 14 16 8 6 10 7 5 3 4 4 3 4
12 11 10 8 7 9 14 17 21 21 23 25 33 38 41 41 39 36 35 32 30 26 24 22 20 20 18 17 17 16 15 13 11 11 10 5 9 7 5 4 4 4 3
15 13 11 8 9 11 14 17 19 21 25 28 33 37 38 38 34 32 31 30 28 26 24 22 21 19 18 17 16 15 14 13 12 10 9 10 3 7 8 5 4 3 3
Wind_Direction
219 227 233 236 237 238 248 253 260 278 292 286 279 283 278 277 287 299 300 306 317 321 319 318 315 314 318 320 320 322 324 325 325 324 325 322 317 318 322 324 325 328 331
216 223 230 237 242 231 237 246 254 248 261 271 283 275 277 279 288 293 303 314 319 315 314 313 314 318 321 321 324 325 325 326 329 330 325 321 322 325 324 333 331 334 338
215 220 225 231 235 233 239 238 237 225 259 271 282 271 280 281 288 299 311 315 310 309 311 315 317 321 321 324 326 326 326 328 331 330 326 325 329 326 333 335 340 336 332
213 215 219 224 229 232 229 226 227 247 246 268 266 275 278 285 297 305 308 307 307 310 315 316 318 319 323 325 324 325 325 329 330 332 324 330 329 332 335 342 336 334 342
211 211 216 221 221 226 198 215 247 197 249 263 266 271 280 290 298 305 303 305 308 313 314 316 317 320 321 323 325 325 328 330 333 328 325 327 329 333 333 336 341 344 344
209 210 212 215 221 206 195 215 206 219 268 261 265 273 282 293 298 297 302 306 313 313 313 315 319 321 323 325 325 327 329 333 335 325 326 331 333 337 339 328 338 344 350
207 212 213 217 203 189 196 202 189 223 247 256 261 269 282 288 294 302 307 312 311 313 315 318 318 321 323 325 328 330 331 335 333 326 332 333 342 342 343 342 348 349 352
211 215 201 221 184 168 154 179 179 240 248 253 261 272 283 294 303 308 309 309 311 312 315 315 319 322 326 328 330 329 332 333 329 329 332 338 345 348 346 351 357 351 344
212 215 199 185 149 143 167 180 211 233 242 252 266 280 293 302 307 307 309 307 310 313 314 317 321 323 324 328 328 328 331 326 327 329 333 339 343 348 352 349 352 355 350
207 200 159 148 141 160 169 198 221 233 242 258 276 290 300 302 306 306 306 310 312 313 317 323 324 325 327 326 325 326 324 322 325 328 335 339 341 351 352 350 353 358 4
181 159 130 136 136 150 190 208 220 234 254 273 291 298 302 305 304 308 311 311 314 321 324 323 326 325 324 323 323 321 318 316 319 327 340 338 347 355 353 353 1 14 22
131 127 126 140 152 181 197 209 223 245 267 286 294 303 303 304 312 314 312 317 324 325 327 325 324 323 322 322 321 321 319 319 320 339 345 354 353 348 350 0 22 39 23
123 134 146 154 174 188 197 207 221 252 286 295 303 299 303 318 313 313 323 326 327 326 324 323 322 325 326 325 327 326 326 322 327 342 350 360 353 350 356 7 28 42 39
138 149 155 169 179 185 187 199 222 302 298 294 300 316 320 311 319 328 328 327 327 324 325 325 328 331 333 332 333 334 330 325 327 336 351 4 1 5 6 9 40 61 41
138 154 167 168 164 154 138 106 322 293 294 319 324 309 314 324 331 329 330 330 328 329 331 332 333 333 333 335 336 337 335 329 331 345 0 2 4 12 13 16 52 53 52
160 162 153 138 130 124 113 110 255 276 346 293 316 328 333 335 331 330 329 331 333 336 334 332 330 329 333 336 338 342 336 330 329 356 3 4 11 15 23 31 63 66 53
152 142 132 126 120 117 126 168 151 146 324 335 336 341 344 339 334 332 334 337 339 337 338 338 336 336 339 343 340 344 340 332 327 345 357 10 13 22 30 32 75 68 63
142 128 126 123 123 135 146 144 147 350 348 345 349 347 340 338 335 339 342 341 344 347 352 354 350 347 347 349 350 346 346 343 329 341 8 10 19 32 39 34 79 96 78
128 129 129 123 128 129 131 137 25 357 356 352 346 342 341 343 346 344 346 348 350 353 357 356 355 352 351 353 356 355 359 353 338 345 4 10 28 43 63 39 42 46 71
133 138 126 137 138 139 127 41 5 1 351 345 344 344 350 349 347 350 349 349 350 351 353 354 354 354 353 355 359 4 358 4 353 350 7 19 47 39 62 48 36 43 49
142 137 145 141 146 151 114 6 358 345 342 342 345 351 350 349 351 349 346 347 347 347 347 350 352 352 354 356 358 5 9 8 3 8 4 23 61 33 40 64 48 31 48
150 150 144 154 169 140 328 341 339 342 344 342 346 350 351 352 348 346 345 343 344 344 342 344 347 349 352 356 358 1 9 10 8 15 16 17 24 17 18 36 20 4 43
161 158 170 187 186 220 328 336 338 337 336 342 346 350 352 347 345 343 342 343 342 340 340 340 344 349 351 354 357 2 5 14 9 17 28 17 24 19 345 358 30 16 347
168 175 193 193 218 286 307 325 333 336 335 336 343 351 345 342 340 342 343 344 342 342 339 340 339 343 347 349 354 358 3 8 15 8 19 30 22 34 23 347 359 23 14
186 198 201 215 245 294 317 328 334 332 330 336 346 345 340 336 339 343 345 345 345 347 349 344 341 340 342 347 348 352 358 5 7 11 16 6 27 23 35 40 18 18 13
195 201 209 237 270 302 321 328 327 325 328 339 341 337 334 334 340 346 347 347 348 350 351 351 350 348 344 343 343 345 349 355 1 6 5 18 325 27 26 25 27 25 21
Height
5752 5759 5765 5771 5783 5795 5795 5800 5802 5802 5805 5813 5814 5811 5810 5810 5808 5805 5802 5798 5793 5789 5785 5781 5776 5771 5764 5756 5749 5740 5731 5723 5714 5700 5685 5670 5654 5636 5622 5612 5602 5593 5585
5749 5753 5759 5766 5776 5784 5787 5793 5796 5800 5804 5806 5808 5809 5807 5805 5804 5801 5797 5791 5786 5784 5781 5776 5771 5764 5757 5750 5742 5733 5724 5715 5705 5692 5676 5659 5641 5628 5617 5609 5598 5588 5580
5740 5749 5758 5765 5770 5773 5781 5787 5790 5792 5799 5801 5803 5802 5801 5801 5799 5794 5788 5785 5782 5779 5775 5770 5763 5758 5751 5744 5736 5727 5717 5707 5694 5680 5663 5646 5633 5623 5616 5607 5596 5587 5577
5736 5746 5754 5761 5766 5770 5776 5780 5784 5789 5794 5794 5797 5797 5797 5796 5792 5787 5784 5781 5778 5773 5768 5763 5758 5752 5745 5738 5731 5721 5711 5699 5686 5671 5652 5640 5631 5621 5613 5607 5599 5588 5580
5730 5741 5749 5755 5761 5766 5768 5775 5781 5784 5788 5790 5792 5793 5792 5789 5785 5781 5780 5777 5772 5768 5762 5757 5751 5745 5740 5732 5724 5714 5703 5691 5678 5661 5647 5637 5629 5620 5614 5606 5599 5591 5579
5725 5735 5742 5749 5757 5759 5759 5771 5776 5780 5784 5787 5788 5787 5786 5785 5781 5778 5775 5771 5767 5763 5757 5750 5744 5738 5730 5722 5714 5705 5697 5684 5669 5653 5643 5633 5626 5617 5610 5603 5596 5589 5582
5721 5727 5735 5743 5742 5746 5755 5768 5773 5778 5782 5784 5784 5783 5782 5780 5777 5773 5770 5766 5762 5757 5751 5745 5739 5732 5722 5713 5705 5695 5685 5673 5660 5647 5637 5629 5623 5616 5609 5602 5594 5584 5577
5718 5726 5723 5729 5728 5741 5756 5768 5770 5776 5778 5781 5780 5779 5777 5774 5770 5768 5765 5761 5757 5752 5748 5741 5734 5724 5714 5705 5695 5686 5675 5664 5653 5642 5634 5628 5621 5614 5607 5600 5593 5584 5574
5709 5713 5710 5718 5727 5742 5759 5764 5767 5772 5775 5776 5775 5773 5770 5767 5766 5763 5760 5757 5753 5748 5744 5736 5727 5717 5707 5698 5687 5675 5664 5654 5645 5638 5630 5625 5619 5613 5607 5602 5596 5588 5578
5693 5706 5703 5714 5732 5747 5755 5757 5763 5769 5771 5770 5769 5767 5765 5763 5762 5760 5758 5753 5749 5744 5738 5727 5718 5709 5699 5688 5677 5667 5657 5647 5639 5634 5628 5623 5619 5612 5607 5602 5595 5587 5581
5699 5704 5711 5722 5734 5741 5754 5761 5763 5765 5766 5766 5764 5763 5761 5759 5758 5756 5753 5750 5744 5737 5728 5719 5710 5699 5688 5676 5667 5658 5650 5642 5635 5631 5627 5621 5617 5612 5608 5603 5595 5587 5582
5696 5708 5718 5726 5734 5745 5751 5756 5759 5762 5764 5762 5762 5760 5758 5756 5753 5752 5751 5745 5738 5728 5719 5710 5700 5687 5675 5665 5657 5649 5642 5637 5632 5629 5624 5620 5616 5613 5609 5604 5596 5590 5587
5706 5715 5722 5729 5740 5747 5752 5756 5759 5760 5759 5759 5757 5757 5754 5750 5751 5751 5745 5738 5729 5719 5711 5701 5688 5675 5665 5657 5650 5644 5638 5634 5630 5626 5622 5619 5617 5614 5609 5604 5600 5597 5592
5714 5721 5728 5735 5741 5747 5751 5754 5755 5754 5756 5755 5754 5752 5751 5752 5750 5744 5737 5727 5719 5711 5700 5687 5675 5667 5660 5653 5646 5640 5635 5632 5629 5625 5621 5618 5616 5614 5611 5607 5604 5601 5597
5716 5724 5732 5737 5741 5744 5746 5747 5750 5752 5753 5752 5752 5754 5751 5747 5741 5735 5726 5719 5711 5701 5687 5677 5668 5660 5654 5649 5644 5637 5632 5630 5628 5624 5620 5618 5616 5615 5613 5610 5607 5605 5602
5721 5727 5732 5735 5738 5741 5745 5748 5750 5750 5751 5755 5752 5748 5744 5737 5732 5728 5721 5713 5701 5689 5679 5671 5663 5657 5652 5647 5641 5635 5630 5629 5627 5623 5621 5619 5616 5616 5614 5611 5610 5608 5605
5722 5727 5731 5734 5736 5741 5743 5747 5749 5751 5750 5748 5746 5742 5736 5731 5728 5722 5714 5702 5692 5683 5673 5664 5659 5655 5650 5644 5639 5634 5629 5628 5626 5624 5621 5619 5618 5616 5615 5614 5612 5611 5609
5721 5724 5728 5732 5736 5740 5744 5746 5747 5748 5747 5745 5739 5735 5733 5730 5725 5714 5705 5696 5686 5675 5668 5663 5658 5654 5649 5643 5638 5632 5627 5627 5625 5624 5622 5620 5619 5617 5617 5615 5614 5613 5612
5721 5725 5729 5733 5736 5739 5743 5745 5745 5744 5741 5739 5737 5734 5731 5725 5715 5708 5699 5689 5681 5674 5669 5664 5659 5654 5649 5644 5639 5632 5628 5626 5625 5624 5623 5621 5620 5619 5618 5618 5617 5615 5614
5719 5725 5730 5734 5737 5740 5740 5739 5741 5741 5740 5737 5734 5731 5724 5719 5712 5702 5693 5686 5680 5675 5669 5664 5659 5655 5649 5644 5639 5634 5628 5626 5625 5624 5623 5622 5621 5620 5619 5619 5619 5618 5617
5723 5727 5730 5733 5736 5738 5740 5740 5739 5740 5738 5735 5730 5727 5721 5713 5706 5699 5692 5686 5680 5675 5669 5664 5659 5655 5650 5645 5640 5636 5631 5627 5626 5625 5623 5623 5622 5621 5620 5620 5620 5620 5620
5724 5726 5728 5732 5735 5735 5738 5740 5739 5736 5733 5732 5729 5723 5716 5710 5704 5698 5691 5686 5680 5674 5669 5664 5659 5654 5650 5646 5641 5637 5633 5629 5628 5626 5624 5623 5623 5622 5622 5621 5620 5621 5621
5723 5727 5730 5733 5735 5737 5736 5735 5735 5736 5733 5728 5724 5720 5714 5709 5702 5697 5691 5684 5678 5672 5667 5663 5658 5654 5650 5646 5643 5639 5635 5632 5629 5628 5626 5625 5624 5623 5622 5622 5622 5621 5621
5722 5725 5728 5729 5732 5735 5737 5736 5734 5731 5729 5727 5724 5718 5713 5707 5701 5694 5688 5682 5675 5670 5665 5661 5657 5653 5650 5646 5643 5640 5637 5634 5631 5629 5628 5626 5625 5624 5623 5623 5622 5622 5621
5722 5726 5729 5732 5734 5735 5735 5734 5732 5730 5729 5726 5721 5716 5710 5704 5697 5690 5685 5680 5674 5669 5664 5660 5656 5652 5649 5646 5643 5641 5638 5635 5633 5631 5629 5628 5626 5625 5624 5623 5622 5622 5622
5725 5728 5730 5732 5733 5734 5733 5732 5731 5729 5726 5721 5718 5713 5707 5701 5694 5687 5683 5678 5672 5668 5663 5659 5655 5651 5648 5645 5643 5640 5638 5635 5634 5632 5630 5629 5627 5626 5625 5624 5623 5623 5622